Regional Weather Roundup
Issued by NWS Wakefield, VA

Home | Current Version | Previous Version | Graphics & Text | Print | Product List | Glossary On
Versions: 1 2 3 4 5 6 7 8 9 10 11 12 13 14 15 16 17 18 19 20 21 22 23 24 25 26 27
000
ASUS41 KAKQ 302315
RWRAKQ

REGIONAL WEATHER ROUNDUP
NATIONAL WEATHER SERVICE WAKEFIELD VA
700 PM EDT MON MAY 30 2016

Note: "fair" indicates few or no clouds below 12,000 feet with no
significant weather and/or obstructions to visibility. * = Denotes
station may not report precipitation (e.g., rain,snow,etc.),
thunder or fog.

VAZ042-051-052>054-056-310000-
NORTHERN VIRGINIA

CITY           SKY/WX    TMP DP  RH WIND       PRES   REMARKS
WASH NATIONAL  PTSUNNY   75  71  87 S10       29.95S
DULLES         PTSUNNY   79  68  69 SE8       29.94S
FORT BELVOIR   FAIR      75  69  82 SE8       29.94S
QUANTICO       PTSUNNY   75  71  87 SE9       29.95S
FREDERICKSBRG* FAIR      76  71  84 SE6       29.94S
STAFFORD*      FAIR      75  70  84 SE5       29.99R
WARRENTON      FAIR      79  65  62 S5        29.94S
CULPEPER*      FAIR      79  72  79 CALM      29.95S
MANASSAS*      SUNNY     79  70  73 S8        29.94S
LEESBURG*      FAIR      81  72  74 SE8G17    29.95R
WINCHESTER     FAIR      81  64  57 SE3       29.95R
FRONT ROYAL*   FAIR      81  66  61 CALM      29.93R
LURAY*         FAIR      82  64  54 CALM      29.94S
$$

VAZ048-049-060>072-079>083-310000-
CENTRAL AND SOUTH CENTRAL VIRGINIA

CITY           SKY/WX    TMP DP  RH WIND       PRES   REMARKS
RICHMOND       CLOUDY    71  69  93 SE6       29.96S
CHESTERFIELD*  FAIR      72  61  68 SE5       29.97F
PETERSBURG*    FAIR      73  73 100 E3        29.97R
HANOVER        CLOUDY    72  68  87 CALM      29.97S
TAPPAHANNOCK*  DRIZZLE   72  72 100 CALM      29.98R
QUINTON*       CLOUDY    71  70  98 S6        29.96S
CHARLOTTSVILLE FAIR      80  68  66 S6        29.95S
GORDONSVILLE*  FAIR      77  71  81 SE5       29.95R
ORANGE*        FAIR      77  70  78 NE5       29.96S
LOUISA*        FAIR      79  73  83 SE3       29.94S
BUMPASS*       FAIR      74  71  88 SE3       29.95S
FARMVILLE*     PTSUNNY   80  70  72 E8        29.94S
CREWE*         FAIR      74  72  93 E3        29.95F
FORT PICKETT*  NOT AVBL
CHASE CITY*    FAIR      76  71  83 SE7       29.96R
CLARKSVILLE*   FAIR      75  72  88 E7        29.95R
SOUTH HILL*    FAIR      74  71  87 CALM      30.01R
LAWRENCEVILLE* FAIR      72  69  91 E5        29.96R
EMPORIA*         N/A     72  70  94 E7        29.98R
$$

VAZ088>098-310000-
SOUTHEAST VIRGINIA

CITY           SKY/WX    TMP DP  RH WIND       PRES   REMARKS
NORFOLK        LGT RAIN  70  68  93 NE8       29.97F
VIRGINIA BEACH LGT RAIN  75  69  81 E7        29.96S
NORFOLK NAVAL  LGT RAIN  71  69  93 NE5       29.99F FOG
WEST POINT*    PTSUNNY   70  69  96 CALM      29.98R
SALUDA*        MOCLDY    68  68  99 CALM      29.97S
NEWPORT NEWS   LGT RAIN  70  69  97 SE5       29.98S
LANGLEY AFB    LGT RAIN  69  69  98 E5        29.98R FOG
FORT EUSTIS    LGT RAIN  70  55  60 E5        29.95S
WILLIAMSBURG*  FAIR      72  72 100 E5        29.98R
HR EXEC AP*      N/A     72  68  88 N3        30.00R
FRANKLIN*      RAIN      70  69  96 E6        29.97S
US460-WAKEFLD  LGT RAIN  71  69  93 VRB3      29.96F
$$

VAZ020-022-025-037-045-310000-
WEST CENTRAL AND SOUTHWEST VIRGINIA

CITY           SKY/WX    TMP DP  RH WIND       PRES   REMARKS
STAUNTON*      FAIR      76  65  68 SE3       29.99R
WAYNESBORO*    MOCLDY    77  63  61 SE6       29.98S
HOT SPRINGS VA DRIZZLE   64  61  88 E5        30.09S
LYNCHBURG      FAIR      78  67  68 E5        29.97R
DANVILLE       FAIR      82  67  60 VRB5      29.93S
SOUTH BOSTON*  FAIR      78  72  82 E8        29.94S
MARTINSVILLE   FAIR      80  64  58 N5        29.97R
ROANOKE        FAIR      79  64  60 SE8       29.98S
BLACKSBURG     PTSUNNY   77  61  57 CALM      30.04R
DUBLIN*        PTSUNNY   77  61  56 CALM      30.03R
MARION*        CLOUDY    71  63  76 E8        30.08R
HILLSVILLE*    CLOUDY    70  61  72 NW13G20   30.03R
RICHLANDS*     FAIR      76  48  37 N8G16     30.05S
WISE*          FAIR      79  52  38 N8        30.07S
ABINGDON*      PTSUNNY   81  63  54 SW10      30.01S
$$

MDZ021>025-VAZ099-100-310000-
SOUTHERN MARYLAND AND THE DELMARVA PENINSULA

CITY           SKY/WX    TMP DP  RH WIND       PRES   REMARKS
PATUXENT RIVER CLOUDY    68  66  93 SE13      29.96F
BAY BRIDGE APT CLOUDY    72  68  88 S9        29.95S
LEONARDTOWN    CLOUDY    70  66  88 CALM      29.98S
DOVER          LGT RAIN  72  72 100 S7        29.96R
GEORGETOWN     LGT RAIN  71  69  93 S8        29.98F
EASTON         CLOUDY    73  73 100 S7        30.00S
CAMBRIDGE        N/A     68  66  94 S6        29.96F
SALISBURY      LGT RAIN  68  67  96 SE8       29.98S
OCEAN CITY     RAIN      67  67 100 CALM      29.98S FOG
WALLOPS ISLAND LGT RAIN  68  65  90 NW6       29.99S
ACCOMACK*      RAIN      68  64  88 CALM      29.99S
$$

NCZ012>017-030>032-310000-
NORTH CENTRAL AND EASTERN NORTH CAROLINA

CITY           SKY/WX    TMP DP  RH WIND       PRES   REMARKS
ROANOKE RAPIDS DRIZZLE   72  70  94 E6        29.95R
RALEIGH        CLOUDY    74  71  91 NE5       29.94S
ELIZABETH CITY LGT RAIN  72  70  93 SE7       29.97S
AHOSKIE*       PTSUNNY   74  71  90 CALM      29.96R
EDENTON*       CLOUDY   N/A N/A N/A SE6       29.96S
CURRITUCK*     DRIZZLE   72  72  99 CALM      29.98S
KILL DEVIL HLS RAIN      71  69  95 SE5       29.97S
MANTEO         NOT AVBL
CAPE HATTERAS  CLOUDY    75  71  87 SE7       29.95S
TARBORO*       CLOUDY    76  71  83 SE6       29.95S
GOLDSBORO      NOT AVBL
WASHINGTON     CLOUDY    74  71  90 E5        29.94S
GREENVILLE     PTSUNNY   75  72  88 SE5       29.96S
NEW BERN       MOSUNNY   77  69  76 E3        29.93F
WILMINGTON     MOSUNNY   79  70  74 SE8       29.89F
$$

VAZ048-310000-
ELSEWHERE

CITY           SKY/WX    TMP DP  RH WIND       PRES   REMARKS
HARRISBURG PA  CLOUDY    81  67  62 NW5       29.92R
BALTIMORE      CLOUDY    73  68  84 S3        29.94F
ANNAPOLIS      CLOUDY    71  68  90 S8        29.94F
ANDREWS AFB    FAIR      72  70  93 S7        29.94F
PHILADELPHIA   CLOUDY    74  68  81 S8        29.96S
HENDERSON NC   CLOUDY    73  68  84 E6        29.94F
GREENSBORO     CLOUDY    82  63  52 E10       29.93S
ROCKY MOUNT    CLOUDY    76  69  79 E3        29.94R
$$

VAZ100-310000-
MARINE

STATION/POSITION TIME  TEMP    WIND        PRES    WAVE   SWELL
                       AIR SEA DIR/SP/G            HT/PER HT/PER
                 (UTC) (F)     (DEG/KT/KT) (MB)    (FT/S) (FT/S)
BRANDYWINE LGT   2200   67                   N/A
CAPE MAY NJ      2200   67 68                N/A
LEWES DE         2200   70 65                N/A
15NM E FENWICK I 2250   66 65              1015.4R   4/ 7
OCEAN-CITY-INLET 2200   65 58                N/A
WACHAPREAGUE VA  2200   69 76                N/A
THOMAS POINT MD  2300   70 69  160/ 18/ 19 1014.9F
GOOSES REEF MD   2300   69 69  170/ 14/ 16 1015.4F   2/ 3
COVE POINT MD    2200   67                   N/A
SOLOMONS ISLAND  2200   71 69                N/A
BISHOPS HEAD MD  2200   70 74                N/A
PINEY POINT MD   2200          160/  9/  9   N/A
POTOMAC MD       2300   69 71  180/  8/  8 1013.9F   1
CAMBRIDGE MD     2200   71 69                N/A
LEWISETTA VA     2200   71 72                N/A
RAPPAHANNOCK LGT 2200                      1016.0F
STINGRAY PT      2300   69 70  140/ 10/ 10 1015.3F   0
YORK RVR RNG VA  2200   69                   N/A
YORKTOWN VA      2200   70 70                N/A
JAMESTOWN VA     2300   71 75  120/  8/ 10   N/A
DOMINION TERM VA 2200   70                   N/A
KIPTOPEKE VA     2200      70                N/A
CHES BAY BRIDGE  2200   70 63                N/A
CAPE HENRY VA    2200   70                   N/A
CHESAPEAKE LGHT  2200   69     170/  8/  8 1015.7F
WILLOUBY STN VA  2200   69                   N/A
CAPE HENRY BUOY  2212      69                N/A     4/ 8
1ST LANDING BUOY 2300   69 68  350/  4/  6 1015.4R   2/ 5
CAPE CHARLES BUO 2226      70                N/A     3/ 8   3/ 8
OFFSHORE WE BUOY 2221      70                N/A     5/ 7   5/ 7
64NM E OF VA BCH 2250   67 64  200/  2/  4 1015.4R   6/ 6   5/ 6
DUCK PIER NC     2200   64 58                N/A
44100 DUCK FRF   2224      67                N/A     5/ 8
44056 DUCK FRF   2211      62                N/A     4/ 7
OREGON INLET NC  2200   69 76                N/A
HATTERAS NC      2200   75 75                N/A
DIAMOND SHLS NC  2250   77 80  170/ 16/ 19 1013.4F   6/ 8   3/ 8
CAPE LOOKOUT NC  2300   76      CALM  /  1 1013.0R
C1F1C2F2C3F3C4F4C5F5C6F6C7F7C8M1C9!



USA.gov is the U.S. government's official web portal to all federal, state and local government web resources and services.